Location: eljas
(40.1958°N, 6.8661°W)
Time: 15:45:20
(UTC+02:00)

Daily predictions for brighter satellites

Satellite Brightness Start Highest point End
(mag) Time Altitude Azimuth Time Altitude Azimuth Time Altitude Azimuth
Cosmos 2082 3.7 22:23:48 10° S 22:29:20 63° ESE 22:34:54 10° NNE
Cosmos 1727 Rocket 4.2 22:27:03 10° SSE 22:33:08 53° E 22:39:17 10° NNE
Cosmos 2297 Rocket 2.2 22:31:35 10° SSW 22:37:11 69° ESE 22:42:49 10° NNE
SAR-Lupe-4 3.6 22:41:23 10° SSE 22:44:57 72° ENE 22:48:32 10° N
Meteor 2-5 Rocket 4.4 22:40:04 10° SSW 22:45:50 62° WNW 22:51:31 10° N
Envisat 3.5 22:41:21 10° S 22:46:22 63° W 22:51:26 10° NNW
Cosmos 1939 Rocket 3.1 22:42:36 10° S 22:46:34 74° W 22:50:37 10° NNW
Cosmos 1184 Rocket 3.0 22:44:25 10° S 22:47:40 53° E 22:50:58 10° NNE
CZ-4B DEB 2.5 22:44:47 10° SSE 22:47:44 84° ENE 22:50:43 10° N
Cosmos 1842 Rocket 3.6 22:48:31 10° N 22:52:57 83° W 22:57:17 10° S
USA 32 4.1 22:47:46 10° S 22:52:57 65° E 22:58:10 10° N
Cosmos 1980 4.1 22:49:47 10° NNW 22:55:26 66° WSW 23:01:03 10° S
Cosmos 2084 4.2 22:52:47 10° S 22:56:13 27° ESE 22:59:31 10° ENE
Helios 1A 3.6 22:54:06 10° S 22:58:09 55° W 23:02:15 10° NNW
Aureole 2 Rocket 3.6 22:55:04 10° NNW 22:59:02 48° WSW 23:02:47 10° S
Terra 4.0 22:57:54 10° E 22:59:39 12° ENE 23:01:23 10° NE
Atlas Centaur 2 2.7 22:57:48 10° SW 23:00:15 17° S 23:01:50 14° SSE
Cosmos 1140 Rocket 3.5 22:56:14 10° SSW 23:01:25 89° WNW 23:06:36 10° NNE
ATLAS 5 CENTAUR R/B 1.9 22:57:49 10° SSW 23:02:14 48° ESE 23:07:01 10° NE
Helios 1B rocket 3.2 22:58:38 10° N 23:02:42 56° WNW 23:06:45 10° SSW
Cosmos 1340 Rocket 2.7 22:58:54 10° S 23:02:53 79° E 23:06:57 10° NNE
Meteor 1-29 3.5 22:59:48 10° N 23:03:12 62° WNW 23:06:35 10° SSW
SAR-Lupe-1 4.2 23:00:38 10° S 23:04:13 75° WSW 23:07:49 10° NNW
Cosmos 1867 4.1 22:59:53 10° S 23:04:50 37° ESE 23:09:50 10° NE
Cosmos 2237 Rocket 2.7 23:00:39 10° NNW 23:06:09 58° WSW 23:11:38 10° S
Cosmos 1242 Rocket 3.4 23:07:52 10° N 23:11:19 35° ENE 23:13:32 18° SE
Cosmos 1408 Rocket 4.3 23:16:37 18° SE 23:19:16 34° E 23:23:10 10° NNE
Lacrosse 4 Rocket 3.6 23:16:34 10° WSW 23:20:19 30° NW 23:24:12 10° N
Cosmos 2227 Rocket 3.6 23:15:07 10° SW 23:20:27 42° WNW 23:25:49 10° N
USA 234 3.2 23:15:00 10° NE 23:21:34 77° SE 23:28:06 10° SW
Milstar 3 Cent rocket 4.2 23:15:54 10° WSW 23:23:00 39° S 23:33:58 15° SE
BREEZE-M DEB (TANK) 4.1 23:25:34 10° WNW 23:27:22 22° N 23:30:33 10° NE
Cosmos 1850 Rocket 4.0 23:22:51 10° SSW 23:28:01 90° WNW 23:33:14 10° NNE
SL-16 R/B 2.2 23:23:03 10° NNW 23:28:46 90° ENE 23:32:57 19° SSE
Cosmos 1076 Rocket 3.5 23:26:15 12° S 23:30:20 77° E 23:34:44 10° N
Okean 3 Rocket 3.8 23:26:07 10° SSW 23:30:38 76° W 23:35:08 10° N
SL-08 RB Rocket 3.8 23:29:41 21° SSE 23:32:38 63° ENE 23:37:11 10° N
H-2A R/B 2.4 23:30:03 20° SE 23:33:31 52° ENE 23:38:45 10° N
Cosmos 1726 3.2 23:31:14 10° NNE 23:34:31 30° ENE 23:35:41 24° ESE
ARGOS 3.1 23:34:33 18° SSE 23:38:42 89° ENE 23:44:09 10° NNW
EO 1 Delta rocket 4.1 23:36:52 23° SE 23:39:40 52° ENE 23:44:08 10° N
Cosmos 1356 Rocket 3.4 23:37:19 13° S 23:41:05 87° WNW 23:45:23 10° N
Cosmos 2221 3.0 23:36:52 10° NNW 23:41:11 58° W 23:44:40 15° S
Cosmos 2061 Rocket 4.0 23:34:50 10° N 23:41:15 80° E 23:46:04 19° S
Cosmos 1818 3.5 23:36:33 10° NNW 23:42:01 88° ENE 23:45:17 25° SSE
Tiangong 1 1.1 23:39:57 10° W 23:42:43 65° NNW 23:44:36 18° ENE
MetOp-A 4.5 23:39:14 15° S 23:43:44 64° WSW 23:49:04 10° NNW
Cosmos 1908 3.4 23:40:07 10° NNW 23:44:00 71° W 23:46:19 23° S
Cosmos 2100 Rocket 4.1 23:37:46 10° N 23:44:06 82° W 23:49:18 16° S
YAOGAN 11 4.2 23:41:44 22° S 23:44:40 82° W 23:49:13 10° NNW
SPOT 5 2.9 23:42:03 21° SSE 23:45:13 86° WSW 23:50:15 10° NNW
ERS-1 Rocket 3.9 23:41:40 11° S 23:46:17 45° W 23:51:07 10° NNW
Cosmos 2333 Rocket 4.5 23:43:04 10° WNW 23:46:38 17° W 23:50:11 10° SW
Cosmos 1459 Rocket 4.0 23:41:14 10° N 23:47:34 83° W 23:52:24 18° S
Cosmos 1674 3.2 23:45:11 12° SSW 23:48:35 57° W 23:52:18 10° N
NOSS 3-4 (A) 4.5 23:41:57 10° NW 23:48:45 49° WSW 23:54:21 17° S
NOSS 3-4 (C) 4.4 23:42:02 10° NW 23:48:51 50° WSW 23:54:26 17° S
Lacrosse 5 3.0 23:45:26 10° NNW 23:50:06 36° NE 23:53:32 17° E
USA 245 3.2 23:50:48 31° S 23:52:06 60° W 23:55:49 10° NNW
Cosmos 1766 Rocket 3.5 23:50:30 20° S 23:53:26 89° WNW 23:57:48 10° N
KORONAS-FOTON 3.9 23:52:39 22° SSW 23:55:02 76° W 23:58:51 10° N
Cosmos 2151 4.2 23:55:46 24° E 23:56:18 25° E 23:59:49 10° NE
